EHI
0 0 1 1 0 0 0 0 0 0 1 2 1 0 0 0 0 0 1 1 1 0 0 0 0 0 0 0 0 0 0 0 0 0 0 0 0 0 0 0 0 0 0
0 1 2 2 1 1 1 1 1 1 2 3 2 1 0 0 0 0 0 0 0 0 0 0 0 0 1 1 0 0 0 0 0 0 0 0 0 0 0 0 0 0 0
1 2 3 3 3 2 3 3 3 3 3 3 3 2 1 0 0 0 0 0 0 1 1 1 0 0 1 2 1 0 0 0 0 0 0 0 1 1 0 0 0 0 0
3 3 3 4 4 4 4 5 6 5 3 2 3 3 2 1 1 0 0 0 1 2 2 1 0 0 1 2 2 1 1 1 1 0 0 0 1 1 1 0 0 0 0
5 4 4 4 5 5 5 6 7 6 4 2 2 3 4 3 3 1 0 0 1 2 2 1 1 0 1 2 3 2 2 2 1 1 1 0 1 1 1 1 0 0 0
5 5 4 4 5 6 6 6 7 6 5 3 2 2 4 5 5 4 2 2 2 2 1 0 0 0 0 1 2 1 1 1 1 1 1 1 1 0 0 0 0 0 0
4 4 3 4 5 7 7 8 7 7 7 6 4 3 3 4 6 7 5 4 3 2 0 0 1 1 0 0 0 0 0 0 0 1 1 2 2 1 0 0 0 0 0
4 4 4 5 7 8 9 9 9 8 8 8 6 4 2 3 6 7 6 5 4 2 1 1 2 3 2 2 1 0 0 0 0 0 0 1 1 1 0 0 0 0 0
5 5 6 6 7 8 8 8 7 7 9 9 9 6 4 3 5 6 5 5 5 5 3 2 3 3 4 5 4 1 0 0 0 0 0 1 1 1 2 1 0 0 0
6 6 6 6 5 4 5 4 3 5 9 10 9 7 5 4 5 6 6 6 6 6 5 3 3 4 5 6 4 1 0 0 0 0 0 1 1 2 3 2 1 0 0
6 6 6 6 3 2 2 1 2 4 8 10 9 6 3 3 4 5 5 5 6 6 6 4 4 5 5 4 3 1 1 0 0 0 0 0 0 1 2 3 3 1 1
6 7 7 7 5 3 2 2 4 5 6 8 8 5 2 1 2 3 3 4 5 6 6 6 6 5 4 3 2 1 1 0 0 0 0 0 0 0 1 2 3 2 2
8 8 9 8 7 6 4 5 6 6 5 6 5 4 2 1 2 3 4 4 5 6 7 8 7 5 3 2 1 1 1 0 0 0 0 0 0 0 0 1 1 1 1
8 8 9 9 9 8 7 8 8 7 6 6 4 2 2 3 4 5 6 6 6 7 8 9 9 6 3 2 0 0 0 0 0 0 0 0 0 0 0 0 0 0 0
7 7 8 9 10 9 10 11 10 8 8 7 5 4 5 6 6 7 8 10 10 9 9 10 11 8 5 2 0 0 1 0 0 0 0 0 0 0 0 0 0 0 0
7 7 8 10 10 11 13 14 12 9 8 7 5 6 8 8 7 8 10 13 14 13 11 11 12 10 6 2 0 0 0 0 0 0 0 0 0 0 0 0 0 0 0
9 8 9 10 11 12 14 15 12 9 8 7 5 7 9 9 9 11 12 14 16 14 11 11 11 9 5 1 0 0 0 0 0 0 0 0 0 0 0 0 0 0 0
9 7 8 10 11 12 14 13 10 9 8 6 5 8 9 11 13 14 14 14 14 13 11 11 10 7 4 1 1 1 1 0 0 0 0 0 0 0 0 0 0 0 0
7 7 8 10 11 12 14 13 12 10 8 5 6 10 11 14 16 17 16 15 14 13 12 11 9 7 4 2 2 3 2 1 1 0 0 0 0 0 0 0 0 0 0
8 9 11 12 12 13 14 15 14 11 7 4 6 10 12 14 15 16 16 16 15 13 12 11 9 7 5 4 4 3 3 2 2 1 1 1 1 0 0 0 0 0 0
12 14 15 15 15 15 14 14 14 11 9 7 8 10 11 12 12 11 11 11 12 12 12 11 9 8 7 6 4 3 3 4 4 4 3 3 2 1 0 0 0 0 0
18 19 19 19 18 16 13 10 9 10 11 12 12 12 12 11 10 7 6 6 6 7 9 10 9 9 8 6 4 3 4 6 7 6 6 5 3 2 1 0 0 0 0
25 24 24 23 22 18 12 6 4 7 12 15 16 15 14 12 10 7 6 5 4 3 4 7 8 9 8 6 4 4 5 7 7 7 7 6 5 4 2 1 0 0 0
30 30 30 30 28 21 11 3 2 6 12 15 16 16 15 13 10 8 8 8 5 2 1 3 5 6 5 5 4 4 4 5 5 6 6 6 6 4 3 2 1 0 0
30 30 30 31 30 21 10 2 3 8 12 13 13 13 13 11 8 6 8 8 6 3 1 1 1 2 2 2 2 3 3 3 4 5 5 5 5 4 4 3 2 0 0
27 27 27 29 28 20 8 2 3 10 12 11 10 10 10 8 5 4 7 8 6 4 3 1 0 0 0 0 1 2 3 3 4 5 5 5 4 4 4 3 2 1 0
Wind_Speed
2 2 2 1 1 1 2 1 1 2 1 2 1 1 1 2 2 2 4 9 9 9 10 10 11 11 11 11 10 10 10 10 10 9 9 10 9 9 9 9 8 8 8
2 1 1 0 1 1 1 0 1 1 1 1 1 1 1 1 2 2 3 7 9 9 9 10 10 11 11 11 11 11 11 11 10 10 10 9 9 9 9 9 9 9 8
2 1 1 1 1 1 1 1 0 1 2 2 2 2 2 1 2 3 3 3 6 10 10 9 10 10 11 11 11 11 11 11 10 10 10 10 10 9 9 10 9 9 9
1 1 1 0 0 1 1 1 1 1 1 1 1 1 2 2 3 3 4 4 3 5 9 10 9 9 10 11 12 11 11 11 10 10 10 10 10 10 10 10 10 10 9
2 2 0 0 1 1 1 1 1 1 1 1 2 2 2 2 2 3 3 4 3 3 4 8 9 8 8 9 10 10 10 10 10 10 11 11 10 10 9 10 10 10 10
2 2 1 1 2 1 1 1 1 1 2 2 2 1 1 2 2 2 3 3 3 4 3 4 6 7 8 8 8 9 10 10 10 10 11 11 10 9 9 10 10 10 10
1 2 1 1 2 1 2 2 1 2 2 1 2 2 2 3 2 2 2 2 3 3 3 3 3 3 5 8 8 7 8 9 9 10 10 10 10 10 9 10 10 11 11
1 2 1 2 1 1 2 2 2 2 1 1 2 2 2 4 3 2 2 2 2 2 3 4 3 3 2 3 6 8 7 8 9 9 9 8 9 9 10 10 10 10 11
1 1 1 2 2 2 1 2 2 2 2 1 1 1 1 0 1 3 2 2 2 2 2 3 4 3 3 2 4 7 7 6 7 8 8 8 8 8 9 10 11 11 10
1 2 2 2 3 2 2 3 1 2 2 1 1 1 1 1 1 1 2 2 2 2 1 1 2 3 3 2 3 3 5 5 6 6 6 7 7 8 9 10 11 11 11
1 2 2 2 2 2 2 3 2 3 2 2 1 1 1 1 2 2 1 1 2 2 1 1 1 2 2 2 2 4 6 5 4 4 4 4 5 6 7 8 8 9 9
1 1 2 2 3 3 2 3 3 3 2 2 2 1 1 1 1 1 1 1 1 1 2 1 1 2 2 2 3 6 6 5 4 3 3 3 3 3 4 5 6 6 6
1 1 1 2 2 3 3 3 2 2 2 2 2 2 1 2 1 1 1 1 1 2 2 2 2 1 2 2 3 6 5 5 4 4 3 2 2 2 1 2 3 4 4
1 1 2 2 3 3 3 2 3 2 2 2 3 2 2 2 1 2 2 2 2 2 2 2 2 2 2 2 5 4 5 6 5 4 3 3 3 3 3 3 4 4 4
2 2 2 2 2 2 3 3 2 2 2 2 2 2 3 2 2 2 2 3 2 2 1 3 2 2 2 3 4 3 4 7 6 5 4 4 4 4 4 4 4 4 4
2 2 3 2 2 2 2 2 2 2 2 2 2 2 2 2 2 2 3 3 2 2 1 1 2 3 3 3 5 4 5 8 7 6 5 5 4 4 4 4 5 5 5
2 2 3 2 2 2 2 1 2 2 2 2 2 2 1 2 2 1 1 2 1 1 2 1 2 4 3 3 4 3 3 3 5 7 7 6 6 5 5 5 5 5 5
2 2 2 2 2 2 1 2 2 2 1 1 1 1 1 1 1 1 1 1 0 1 2 3 2 3 3 3 3 3 3 3 4 8 8 7 7 6 6 6 6 5 5
2 2 2 2 2 2 1 1 1 1 1 1 1 1 1 1 1 1 1 1 1 1 2 3 3 2 2 3 3 3 3 2 3 6 7 7 7 7 6 6 6 5 4
2 2 1 1 1 1 1 1 1 1 1 1 1 1 1 1 1 1 1 1 1 1 2 3 3 3 3 3 3 3 3 2 1 2 4 5 7 6 6 6 5 5 5
1 1 1 1 1 0 1 1 1 1 0 0 0 1 2 3 5 3 1 0 1 1 2 2 2 3 3 3 3 3 3 3 2 1 2 3 4 3 4 5 5 5 5
1 1 1 1 0 1 4 3 2 0 1 1 1 1 2 3 4 4 4 3 2 1 1 2 2 2 2 2 2 2 3 3 2 1 1 2 2 2 2 3 7 6 5
2 2 1 1 1 2 3 2 2 0 1 2 1 1 1 3 3 3 3 3 3 3 1 1 1 1 2 2 2 3 2 1 1 3 1 1 1 1 2 6 9 7 6
2 2 2 1 1 3 3 2 0 2 2 2 2 2 2 2 2 1 2 3 4 4 2 1 1 1 1 1 2 1 2 3 3 2 1 1 1 1 1 4 9 7 5
3 2 2 2 2 3 3 1 2 3 3 3 3 3 2 3 3 1 3 4 3 3 5 6 5 5 5 4 1 2 3 3 3 3 2 1 2 1 2 3 6 8 6
3 3 3 2 2 3 3 2 2 2 3 3 3 3 6 4 3 2 2 3 3 2 3 5 5 5 4 4 2 1 1 2 2 2 3 2 2 2 2 3 3 5 5
Wind_Direction
107 98 89 57 74 114 154 168 135 126 146 157 165 147 163 143 160 166 136 158 175 183 186 187 189 192 193 194 196 194 193 195 193 192 188 189 189 188 188 183 187 187 187
103 108 119 116 102 113 51 20 116 146 177 142 159 143 195 182 160 178 168 164 178 186 191 193 196 198 199 199 201 202 200 199 196 196 195 197 199 199 197 195 197 194 194
136 167 148 190 89 102 132 203 134 172 184 177 169 167 184 209 184 190 194 185 179 186 193 197 202 204 204 205 207 207 205 202 200 201 203 205 206 208 208 208 205 201 200
186 216 191 99 12 219 195 173 216 208 184 204 189 199 171 179 203 199 203 194 197 185 186 193 201 206 210 211 211 209 204 203 204 205 207 210 210 211 211 212 210 207 206
212 237 287 10 246 238 248 258 112 251 222 217 207 196 191 186 196 204 202 194 188 199 185 173 190 198 206 208 205 200 199 200 201 205 212 216 217 214 212 210 207 208 208
212 242 222 235 257 246 248 281 269 259 249 232 239 153 178 176 197 189 199 182 180 192 197 176 181 193 199 204 199 201 204 202 203 208 214 218 218 216 212 210 211 213 214
224 257 291 250 263 259 279 271 262 225 224 220 207 178 167 162 155 173 188 188 174 183 186 185 198 196 182 186 188 202 207 207 208 211 216 219 220 219 217 216 216 217 217
241 237 279 277 270 269 263 273 267 271 230 192 233 213 185 171 167 161 166 173 163 165 177 183 185 187 213 176 166 188 201 212 214 213 214 214 215 218 221 222 220 220 220
264 291 276 285 283 269 267 279 268 264 266 219 267 284 270 179 150 148 154 146 153 163 182 170 179 180 193 195 170 169 186 200 209 211 211 211 215 219 221 223 223 221 221
276 271 276 281 285 290 286 271 269 274 266 250 194 235 297 348 288 176 154 139 149 163 172 190 173 171 182 180 141 120 159 184 196 207 214 219 219 220 222 224 226 225 224
259 277 275 277 278 281 290 296 304 281 264 269 264 199 205 204 246 263 213 151 147 147 161 164 160 148 152 156 151 132 130 143 152 176 194 210 219 220 220 220 220 220 223
230 263 271 276 273 285 279 273 271 257 272 280 281 271 244 253 243 246 241 218 153 125 116 107 122 134 144 142 123 109 120 131 137 150 175 197 210 210 206 206 208 201 204
234 218 270 274 279 279 275 271 260 270 259 261 266 273 268 270 267 260 243 224 187 163 138 127 116 132 142 134 115 111 117 124 129 131 133 141 135 127 138 152 169 176 179
274 285 260 264 273 278 276 262 262 253 253 260 264 270 264 251 256 245 241 234 218 175 158 146 121 129 125 114 96 121 111 106 108 113 120 125 120 116 124 126 136 141 147
259 250 253 254 266 270 271 258 260 264 265 260 263 240 249 241 234 238 237 239 235 225 180 156 154 140 140 106 108 116 101 98 98 100 107 112 116 116 117 117 124 128 125
274 271 261 259 264 264 259 251 249 239 247 255 278 296 276 269 241 240 248 248 245 236 210 130 133 130 118 120 109 108 96 101 94 94 95 101 110 116 116 117 117 119 122
244 254 257 260 265 264 262 251 268 254 245 250 255 238 242 289 283 269 262 253 238 214 171 135 119 111 113 113 113 114 113 106 101 94 92 90 92 102 111 113 112 114 115
244 244 248 250 255 259 263 255 263 266 256 264 270 269 266 256 243 283 285 275 256 192 177 166 149 133 126 133 125 130 117 108 98 97 93 90 90 94 98 101 103 104 106
230 240 243 253 264 272 266 261 267 272 272 274 279 271 271 259 239 224 247 244 208 171 164 171 168 137 143 143 138 126 106 93 105 116 116 106 97 95 94 96 97 100 103
210 216 231 242 257 271 284 272 242 250 267 292 331 329 316 305 284 247 202 201 204 173 163 179 167 158 153 159 167 158 144 140 125 122 102 107 110 110 105 102 103 104 103
188 178 186 185 210 219 333 313 260 218 207 147 54 52 52 56 39 22 6 342 195 195 181 178 173 163 157 169 184 182 156 147 137 143 141 141 143 138 129 124 115 106 102
159 166 164 160 127 33 39 21 320 88 82 80 75 89 102 95 86 75 58 41 14 234 201 183 171 168 174 176 172 192 177 185 164 157 181 135 127 115 110 101 95 102 103
164 159 150 145 124 69 56 48 23 107 89 64 56 59 81 90 105 107 115 121 80 51 22 259 153 179 174 175 189 195 188 202 127 131 176 145 136 127 125 96 105 109 110
167 156 148 137 124 83 68 69 157 138 102 85 73 73 83 88 74 92 119 104 89 72 60 103 106 98 109 120 192 185 145 139 132 129 174 199 160 164 134 122 123 123 122
158 150 131 119 111 96 62 24 275 134 115 101 86 69 70 86 41 27 129 121 110 107 84 74 71 83 77 73 58 178 172 181 167 158 177 211 172 172 182 160 138 146 152
163 154 131 116 109 103 81 39 309 144 124 124 116 103 72 57 42 31 135 136 131 126 125 121 114 121 119 117 120 241 214 197 177 167 155 199 191 193 198 177 165 164 172